Columbus, OH

5:54 PM EST on February 13, 2016 (GMT -0500)
Rickenbacker International

Weather History for KLCK - February, 2012

Change the Weather History Date:

Saturday, February 18, 2012

  Actual Average Record
Temperature  
Mean Temperature 39 °F -  
Max Temperature 48 °F 41 °F 64 °F (2011)
Min Temperature 30 °F 26 °F 4 °F (2015)
Degree Days  
Heating Degree Days 26    
Moisture  
Dew Point 24 °F    
Average Humidity 59    
Maximum Humidity 77    
Minimum Humidity 34    
Precipitation  
Precipitation 0.00 in - - ()
Sea Level Pressure  
Sea Level Pressure 30.06 in    
Wind  
Wind Speed 7 mph (WSW)    
Max Wind Speed 17 mph    
Max Gust Speed 23 mph    
Visibility 10 miles    
Events      
Averages and records for this station are not official NWS values.
T = Trace of Precipitation, MM = Missing Value Source: NWS Daily Summary

Daily Weather History Graph

Daily Weather History Graph

Search for Another Location

Airport or City:

Trip Planner

Search our weather history database for the weather conditions in past years. The results will help you decide how hot, cold, wet, or windy it might be!

Date:

Astronomy

Feb. 18, 2012 Rise Set
Actual Time 7:21 AM EST 6:10 PM EST
Civil Twilight 6:53 AM EST 6:38 PM EST
Nautical Twilight 6:22 AM EST 7:09 PM EST
Astronomical Twilight 5:50 AM EST 7:41 PM EST
Moon 4:59 AM EST (2/18) 3:06 PM EST (2/18)
Length of Visible Light 11h 44m
Length of Day
10h 49m
Waning Crescent, 11% of the Moon is Illuminated
Feb 18
Waning Crescent
Feb 21
New
Feb 29
First Quarter
Mar 8
Full
Mar 14
Last Quarter

Hourly Weather History & Observations

Time (EST) Temp. Windchill Dew Point Humidity Pressure Visibility Wind Dir Wind Speed Gust Speed Precip Events Conditions
12:15 AM 32.0 °F 28.7 °F 25.2 °F 76% 30.08 in 10.0 mi South 3.5 mph - N/A   Clear
12:35 AM 32.0 °F 27.5 °F 25.5 °F 77% 30.08 in 10.0 mi South 4.6 mph - N/A   Clear
12:55 AM 32.0 °F 27.5 °F 25.2 °F 76% 30.08 in 10.0 mi South 4.6 mph - N/A   Clear
1:15 AM 32.4 °F 27.9 °F 24.6 °F 73% 30.07 in 10.0 mi South 4.6 mph - N/A   Clear
1:35 AM 32.4 °F 26.0 °F 24.3 °F 72% 30.07 in 10.0 mi SSW 6.9 mph - N/A   Clear
1:55 AM 31.8 °F 26.2 °F 23.9 °F 73% 30.06 in 10.0 mi SSW 5.8 mph - N/A   Clear
2:15 AM 32.0 °F 26.4 °F 23.9 °F 72% 30.06 in 10.0 mi South 5.8 mph - N/A   Scattered Clouds
2:35 AM 31.8 °F 27.3 °F 23.9 °F 73% 30.06 in 10.0 mi SSW 4.6 mph - N/A   Mostly Cloudy
2:55 AM 31.1 °F 25.4 °F 23.7 °F 74% 30.06 in 10.0 mi SSW 5.8 mph - N/A   Overcast
3:15 AM 30.9 °F 24.3 °F 23.7 °F 75% 30.06 in 10.0 mi SSW 6.9 mph - N/A   Scattered Clouds
3:35 AM 30.7 °F 24.1 °F 23.7 °F 75% 30.05 in 10.0 mi SSW 6.9 mph - N/A   Clear
3:55 AM 30.6 °F 23.8 °F 23.5 °F 75% 30.05 in 10.0 mi South 6.9 mph - N/A   Clear
4:15 AM 31.1 °F 25.4 °F 23.9 °F 75% 30.04 in 10.0 mi South 5.8 mph - N/A   Mostly Cloudy
4:35 AM 32.4 °F 26.9 °F 24.8 °F 74% 30.03 in 10.0 mi SSW 5.8 mph - N/A   Overcast
4:55 AM 33.1 °F 27.7 °F 24.8 °F 72% 30.03 in 10.0 mi SSW 5.8 mph - N/A   Overcast
5:15 AM 32.4 °F - 24.6 °F 73% 30.03 in 10.0 mi Calm Calm - N/A   Mostly Cloudy
5:35 AM 31.3 °F 26.6 °F 24.3 °F 75% 30.03 in 10.0 mi SSW 4.6 mph - N/A   Scattered Clouds
5:55 AM 31.1 °F 26.4 °F 23.9 °F 75% 30.03 in 10.0 mi South 4.6 mph - N/A   Scattered Clouds
6:15 AM 31.6 °F 26.0 °F 24.3 °F 74% 30.03 in 10.0 mi South 5.8 mph - N/A   Overcast
6:35 AM 32.2 °F 27.7 °F 24.8 °F 74% 30.03 in 10.0 mi SSW 4.6 mph - N/A   Overcast
6:55 AM 31.8 °F 27.3 °F 24.3 °F 74% 30.03 in 10.0 mi SSW 4.6 mph - N/A   Mostly Cloudy
7:15 AM 30.4 °F - 23.5 °F 76% 30.03 in 10.0 mi Calm Calm - N/A   Scattered Clouds
7:35 AM 31.3 °F 27.9 °F 24.1 °F 75% 30.03 in 10.0 mi SSW 3.5 mph - N/A   Clear
7:55 AM 30.9 °F 26.2 °F 23.9 °F 75% 30.04 in 10.0 mi South 4.6 mph - N/A   Clear
8:15 AM 31.8 °F 27.3 °F 24.6 °F 75% 30.04 in 10.0 mi South 4.6 mph - N/A   Clear
8:35 AM 33.3 °F 27.9 °F 25.7 °F 74% 30.04 in 10.0 mi SSW 5.8 mph - N/A   Clear
8:55 AM 34.7 °F 31.8 °F 26.6 °F 72% 30.04 in 10.0 mi SSW 3.5 mph - N/A   Clear
9:15 AM 36.3 °F 31.6 °F 27.3 °F 70% 30.05 in 10.0 mi SW 5.8 mph - N/A   Clear
9:35 AM 37.6 °F 32.3 °F 27.7 °F 67% 30.05 in 10.0 mi SW 6.9 mph - N/A   Clear
9:55 AM 39.6 °F 34.0 °F 28.8 °F 65% 30.04 in 10.0 mi WSW 8.1 mph - N/A   Scattered Clouds
10:15 AM 41.4 °F 35.7 °F 28.8 °F 61% 30.04 in 10.0 mi West 9.2 mph - N/A   Mostly Cloudy
10:35 AM 42.8 °F 38.0 °F 28.4 °F 57% 30.05 in 10.0 mi WSW 8.1 mph - N/A   Mostly Cloudy
10:55 AM 43.9 °F 40.5 °F 28.6 °F 55% 30.05 in 10.0 mi West 5.8 mph - N/A   Scattered Clouds
11:15 AM 45.1 °F 41.4 °F 27.5 °F 50% 30.06 in 10.0 mi WNW 6.9 mph - N/A   Scattered Clouds
11:35 AM 45.5 °F 41.8 °F 26.2 °F 47% 30.06 in 10.0 mi West 6.9 mph 16.1 mph N/A   Clear
11:55 AM 46.6 °F - 26.1 °F 45% 30.06 in 10.0 mi WNW 11.5 mph - N/A   Clear
12:15 PM 47.5 °F - 25.0 °F 41% 30.06 in 10.0 mi NW 11.5 mph 19.6 mph N/A   Clear
12:35 PM 47.7 °F - 25.3 °F 42% 30.05 in 10.0 mi NW 12.7 mph 17.3 mph N/A   Clear
12:55 PM 48.2 °F - 24.8 °F 40% 30.05 in 10.0 mi NW 13.8 mph 18.4 mph N/A   Clear
1:15 PM 48.7 °F - 23.0 °F 36% 30.04 in 10.0 mi NW 16.1 mph 19.6 mph N/A   Clear
1:35 PM 48.6 °F - 22.3 °F 36% 30.05 in 10.0 mi WNW 10.4 mph 23.0 mph N/A   Scattered Clouds
1:55 PM 48.6 °F - 21.2 °F 34% 30.04 in 10.0 mi NNW 17.3 mph 20.7 mph N/A   Scattered Clouds
2:15 PM 48.9 °F - 21.2 °F 34% 30.05 in 10.0 mi NW 17.3 mph 21.9 mph N/A   Scattered Clouds
2:35 PM 48.2 °F - 23.7 °F 38% 30.06 in 10.0 mi NNW 13.8 mph 21.9 mph N/A   Mostly Cloudy
2:55 PM 46.4 °F 40.4 °F 22.6 °F 39% 30.07 in 10.0 mi NW 13.8 mph - N/A   Scattered Clouds
3:15 PM 46.2 °F 40.1 °F 21.6 °F 38% 30.06 in 10.0 mi NW 13.8 mph 19.6 mph N/A   Mostly Cloudy
3:35 PM 46.2 °F 40.5 °F 20.8 °F 37% 30.07 in 10.0 mi NNW 12.7 mph - N/A   Mostly Cloudy
3:55 PM 45.5 °F 41.3 °F 21.6 °F 39% 30.08 in 10.0 mi NW 8.1 mph - N/A   Mostly Cloudy
4:15 PM 45.7 °F 40.6 °F 19.9 °F 36% 30.09 in 10.0 mi WNW 10.4 mph - N/A   Scattered Clouds
4:35 PM 45.0 °F 40.1 °F 20.3 °F 38% 30.09 in 10.0 mi NNW 9.2 mph - N/A   Scattered Clouds
4:55 PM 43.9 °F 38.3 °F 20.5 °F 39% 30.09 in 10.0 mi NW 10.4 mph - N/A   Scattered Clouds
5:15 PM 43.9 °F 37.9 °F 20.3 °F 39% 30.10 in 10.0 mi NNW 11.5 mph - N/A   Mostly Cloudy
5:35 PM 43.0 °F 38.2 °F 21.9 °F 43% 30.09 in 10.0 mi NNW 8.1 mph - N/A   Scattered Clouds
5:55 PM 42.1 °F 35.7 °F 21.9 °F 45% 30.10 in 10.0 mi NNW 11.5 mph 16.1 mph N/A   Clear
6:15 PM 41.5 °F 34.6 °F 21.4 °F 45% 30.10 in 10.0 mi North 12.7 mph - N/A   Scattered Clouds
6:35 PM 40.6 °F 34.8 °F 21.6 °F 47% 30.11 in 10.0 mi North 9.2 mph - N/A   Mostly Cloudy
6:55 PM 40.1 °F 34.7 °F 21.4 °F 47% 30.10 in 10.0 mi North 8.1 mph - N/A   Scattered Clouds
7:15 PM 39.2 °F 32.5 °F 21.2 °F 49% 30.13 in 10.0 mi North 10.4 mph - N/A   Clear
7:35 PM 38.8 °F 32.1 °F 19.0 °F 45% 30.13 in 10.0 mi North 10.4 mph - N/A   Clear
7:55 PM 38.5 °F 32.7 °F 19.2 °F 46% 30.13 in 10.0 mi North 8.1 mph - N/A   Clear
8:15 PM 37.6 °F 31.0 °F 19.6 °F 48% 30.12 in 10.0 mi North 9.2 mph - N/A   Clear
8:35 PM 37.4 °F 32.1 °F 19.6 °F 49% 30.14 in 10.0 mi North 6.9 mph - N/A   Clear
8:55 PM 36.9 °F 30.7 °F 19.8 °F 50% 30.14 in 10.0 mi NNE 8.1 mph - N/A   Clear
9:15 PM 36.7 °F 29.4 °F 20.1 °F 51% 30.12 in 10.0 mi NNE 10.4 mph - N/A   Clear
9:35 PM 36.0 °F 29.0 °F 20.5 °F 53% 30.13 in 10.0 mi NNE 9.2 mph - N/A   Clear
9:55 PM 34.7 °F 25.9 °F 20.8 °F 57% 30.13 in 10.0 mi NNE 12.7 mph - N/A   Clear
10:15 PM 33.3 °F 25.1 °F 21.0 °F 61% 30.14 in 10.0 mi NE 10.4 mph - N/A   Clear
10:35 PM 32.7 °F 25.0 °F 21.4 °F 63% 30.14 in 10.0 mi NE 9.2 mph - N/A   Clear
10:55 PM 31.8 °F 24.6 °F 21.2 °F 65% 30.14 in 10.0 mi NE 8.1 mph - N/A   Clear
11:15 PM 31.1 °F 23.1 °F 21.0 °F 66% 30.14 in 10.0 mi NE 9.2 mph - N/A   Clear
11:35 PM 30.4 °F 22.9 °F 20.5 °F 67% 30.13 in 10.0 mi NE 8.1 mph - N/A   Clear
11:55 PM 30.2 °F 21.9 °F 19.4 °F 64% 30.13 in 10.0 mi NNE 9.2 mph - N/A   Clear